Oak Ridge, TN

4:16 AM EST on November 21, 2019 (GMT -0500)
Oak Ridge

Weather History for KOQT - September, 2019

Change the Weather History Date:

Monday, September 16, 2019

  Actual Average (KTYS) Record (KTYS)
Temperature  
Mean Temperature 78 °F -  
Max Temperature 96 °F 81 °F 96 °F (1927)
Min Temperature 62 °F 60 °F 43 °F (1985)
Cooling Degree Days 12    
Growing Degree Days 28 (Base 50)    
Moisture  
Dew Point 61 °F    
Average Humidity 61    
Maximum Humidity 90    
Minimum Humidity 32    
Precipitation  
Precipitation 0.00 in - - ()
Sea Level Pressure  
Sea Level Pressure 30.06 in    
Wind  
Wind Speed 1 mph ()    
Max Wind Speed 5 mph    
Max Gust Speed -    
Visibility 10.0 miles    
Events      
Averages and records for this station are not official NWS values.
T = Trace of Precipitation, MM = Missing Value Source: Averaged Metar Reports

Daily Weather History Graph

Daily Weather History Graph

Search for Another Location

Airport or City:

Astronomy

Sep. 16, 2019 Rise Set
Actual Time 7:20 AM EDT 7:42 PM EDT
Civil Twilight 6:54 AM EDT 8:08 PM EDT
Nautical Twilight 6:24 AM EDT 8:38 PM EDT
Astronomical Twilight 5:53 AM EDT 9:09 PM EDT
Moon 9:21 PM EDT (9/16) 9:23 AM EDT (9/16)
Length of Visible Light 13h 14m
Length of Day
12h 22m
Waning Gibbous, 94% of the Moon is Illuminated
Sep 16
Waning Gibbous
Sep 21
Last Quarter
Sep 28
New
Oct 5
First Quarter
Oct 13
Full

Hourly Weather History & Observations

Time (EDT) Temp. Heat Index Dew Point Humidity Pressure Visibility Wind Dir Wind Speed Gust Speed Precip Events Conditions
12:53 AM 66.9 °F - 60.1 °F 79% 30.08 in - Calm Calm - N/A   Clear
1:53 AM 66.0 °F - 59.0 °F 78% 30.08 in - Calm Calm - N/A   Clear
2:53 AM 64.0 °F - 59.0 °F 84% 30.07 in - Calm Calm - N/A   Clear
3:53 AM 64.0 °F - 59.0 °F 84% 30.06 in - Calm Calm - N/A   Clear
4:53 AM 63.0 °F - 59.0 °F 87% 30.08 in - Calm Calm - N/A   Clear
5:53 AM 63.0 °F - 57.9 °F 84% 30.09 in - Calm Calm - N/A   Clear
6:53 AM 62.1 °F - 59.0 °F 90% 30.11 in - Calm Calm - N/A   Clear
7:53 AM 63.0 °F - 59.0 °F 87% 30.13 in - Calm Calm - N/A   Clear
8:53 AM 66.0 °F - 60.1 °F 81% 30.14 in - Calm Calm - N/A   Clear
9:53 AM 73.0 °F - 62.1 °F 68% 30.14 in - Calm Calm - N/A   Clear
10:53 AM 80.1 °F 81.1 °F 61.0 °F 52% 30.13 in - Calm Calm - N/A   Clear
11:53 AM 82.9 °F 83.3 °F 61.0 °F 47% 30.12 in - Calm Calm - N/A   Clear
12:53 PM 87.1 °F 86.5 °F 59.0 °F 39% 30.09 in - SE 4.6 mph - N/A   Clear
1:53 PM 91.9 °F 91.5 °F 60.1 °F 34% 30.06 in - Variable 4.6 mph - N/A   Clear
2:53 PM 93.0 °F 92.3 °F 59.0 °F 32% 30.03 in 10.0 mi Calm Calm - N/A   Unknown
3:53 PM 93.0 °F 92.3 °F 59.0 °F 32% 30.00 in 10.0 mi Calm Calm - N/A   Clear
4:53 PM 93.0 °F 92.7 °F 60.1 °F 33% 29.99 in 10.0 mi Variable 4.6 mph - N/A   Clear
5:53 PM 93.0 °F 92.7 °F 60.1 °F 33% 29.98 in 10.0 mi Variable 4.6 mph - N/A   Partly Cloudy
6:53 PM 91.9 °F 91.8 °F 61.0 °F 35% 29.99 in 10.0 mi SSW 3.5 mph - N/A   Clear
7:53 PM 87.1 °F 87.5 °F 62.1 °F 43% 29.99 in 10.0 mi Calm Calm - N/A   Clear
8:53 PM 81.0 °F 82.7 °F 64.9 °F 58% 29.99 in 10.0 mi Calm Calm - N/A   Clear
9:53 PM 79.0 °F - 64.9 °F 62% 30.00 in 10.0 mi Calm Calm - N/A   Clear
10:53 PM 75.9 °F - 64.9 °F 69% 30.00 in 10.0 mi Calm Calm - N/A   Partly Cloudy
11:53 PM 75.0 °F - 64.9 °F 71% 30.00 in 10.0 mi Calm Calm - N/A   Clear